ERNST (60528 NORAD) Tracking and Keplerian Element Data

This shows tracking and keplerian element data for the satellite.

Feedback or suggestion? Click here.




ElementValue
Catalog60528
NameERNST
Epoch Orbit865
Epoch Day286.7947421
Epoch Year2024
RAAN1.5619
Inclination97.439
Eccentricity0.0007781
Argument of Perigee317.6755
Mean Anonmoly42.3879
Mean Motion15.20279748
Decay Rate0.00012622
L11 60528U 24149BN 24286.79474210 .00012622 00000+0 58347-3 0 9999
L22 60528 97.4390 1.5619 0007781 317.6755 42.3879 15.20279748 8651



Live tracking and technical data element details for ERNST (NORAD 60528). ERNST can be tracked NOW for your location showing map with azimuth and elevation plus other details from your city location.







IsCatalogInMostPopularTable: catalog: 60528, numindb: 5
Update: records affected: 1



GetName: 60528 ERNST

Hit Count: updated at: Wed, 04 Dec 2024 19:11:10 GMT